Location: Fern Park
(28.6492°N, 81.3512°W)
Time: 05:06:45
(UTC+00:00)

Daily predictions for brighter satellites

Satellite Brightness Start Highest point End
(mag) Time Altitude Azimuth Time Altitude Azimuth Time Altitude Azimuth
STARLINK-1201 4.3 00:34:49 10° SW 00:38:53 61° NW 00:42:59 10° NE
ARGOS 3.9 00:34:12 10° SE 00:39:02 36° ENE 00:43:54 10° N
Cosmos 1733 Rocket 3.8 00:36:02 10° NNE 00:39:58 33° E 00:43:52 10° SE
Cosmos 1812 4.3 00:39:02 10° SSW 00:42:39 40° W 00:46:17 10° N
Cosmos 1943 3.7 00:37:17 10° NNW 00:42:52 65° WSW 00:48:25 10° S
STARLINK-1170 4.1 00:38:56 10° NNW 00:42:56 47° NE 00:46:55 10° ESE
CZ-2C R/B 3.5 00:41:01 10° NE 00:45:55 31° E 00:50:47 10° SSE
NOSS 2-3 (D) 3.6 00:43:41 10° S 00:47:41 49° ESE 00:51:53 10° NE
STARLINK-1150 4.0 00:43:53 10° NNW 00:47:56 53° NE 00:51:59 10° SE
ASTRO E2 4.4 00:45:39 10° S 00:48:00 15° SSE 00:50:22 10° ESE
Cosmos 1666 3.3 00:45:10 10° NNE 00:48:45 37° E 00:52:17 10° SSE
STARLINK-1151 3.8 00:48:49 10° NNW 00:52:55 60° NE 00:56:49 11° SE
VEP-3 4.3 00:47:06 10° SW 00:55:54 22° S 01:00:20 11° ESE
STARLINK-1202 4.5 00:52:46 10° S 00:56:18 28° SE 00:59:50 10° ENE
USA 186 1.8 00:54:54 11° SE 00:56:58 34° ENE 00:59:14 10° N
USA 229 DEB 4.2 00:51:32 10° SW 00:57:52 63° WNW 01:04:29 10° NNE
STARLINK-1133 3.7 00:53:46 10° NW 00:57:53 68° NE 01:01:35 12° SE
USA 229 4.2 00:51:39 10° SW 00:57:59 63° WNW 01:04:35 10° NNE
IRS-1A Rocket 4.5 00:53:20 10° SSE 00:59:05 61° ENE 01:04:45 10° N
HJ-1C 4.4 00:55:53 10° S 00:59:05 47° W 01:02:17 10° NNW
Delta 198 3.8 00:54:52 10° WSW 00:59:20 47° S 01:02:50 12° ESE
Cosmos 2278 Rocket 3.2 00:57:37 10° SSE 01:02:04 24° ESE 01:06:32 10° NE
STARLINK-1139 3.6 00:58:43 10° NW 01:02:52 77° NE 01:06:23 14° SE
Resurs 01 Rocket 3.6 01:01:20 10° E 01:03:22 13° ENE 01:05:25 10° NE
NOSS 3-1 (C) 4.5 01:00:04 10° SW 01:05:03 44° WNW 01:10:36 10° NNE
STARLINK-1246 4.2 01:02:24 10° SSW 01:06:11 35° SE 01:09:58 10° ENE
Cosmos 1844 Rocket 3.9 01:01:08 10° SW 01:06:33 47° WNW 01:12:00 10° N
H-2A R/B 2.0 01:01:50 10° SSE 01:06:47 90° WSW 01:11:52 10° NNW
NOSS 3-1 (A) 3.3 01:02:06 10° SSW 01:07:17 78° WNW 01:13:05 10° NNE
STARLINK-1174 3.6 01:03:42 10° NW 01:07:50 87° NE 01:11:10 15° SE
Cosmos 44 Rocket 4.4 01:04:23 10° N 01:08:40 29° ENE 01:11:57 15° ESE
Cosmos 1703 Rocket 4.1 01:05:23 10° SSE 01:09:22 37° E 01:13:21 10° NNE
Delta 128 4.2 01:03:29 10° W 01:10:07 85° S 01:15:24 11° E
STARLINK-1224 4.0 01:07:16 10° SSW 01:11:09 40° SE 01:15:01 10° ENE
STARLINK-1149 3.6 01:08:38 10° NW 01:12:46 83° SW 01:15:54 17° SE
Cosmos 1607 4.3 01:07:34 10° NNW 01:13:50 53° ENE 01:18:49 16° SE
Cosmos 1536 2.8 01:11:06 10° N 01:15:10 89° W 01:19:14 10° S
Cosmos 1371 Rocket 4.0 01:10:01 10° S 01:15:11 59° ESE 01:20:19 10° NNE
STARLINK-1225 3.8 01:12:08 10° SSW 01:16:05 46° SE 01:20:03 10° NE
STARLINK-1180 3.7 01:13:40 10° NW 01:17:48 73° SW 01:20:44 18° SSE
NOSS 2-3 (C) 4.0 01:14:14 10° SW 01:18:20 64° WNW 01:22:44 10° NNE
SJ-6B 2.7 01:15:54 13° SSE 01:19:07 66° ENE 01:22:49 10° N
Orbus 7S 3.8 01:10:28 10° W 01:19:13 77° S 01:21:31 20° E
STARLINK-1230 3.7 01:17:02 10° SSW 01:21:03 52° SE 01:25:04 10° NE
CZ-2C R/B 3.6 01:16:37 10° S 01:21:48 62° W 01:27:17 10° NNW
STARLINK-1153 3.9 01:18:39 10° NW 01:22:44 64° SW 01:25:30 19° SSE
Cosmos 389 Rocket 2.3 01:19:37 10° S 01:23:02 83° E 01:26:30 10° N
Cosmos 2034 Rocket 4.2 01:17:29 10° N 01:23:28 52° E 01:28:22 15° SSE
NOSS 3 (A) 4.2 01:22:41 10° SSW 01:25:31 61° ESE 01:28:08 10° NE
Ariane Rocket 3.3 01:20:42 10° S 01:25:42 67° WSW 01:30:46 10° NNW
STARLINK-1243 3.6 01:21:57 10° SSW 01:26:01 60° SE 01:30:05 10° NE
Cosmos 1816 Rocket 4.4 01:21:36 10° S 01:27:41 69° E 01:33:45 10° N
STARLINK-1132 4.1 01:23:40 10° NW 01:27:43 55° SW 01:30:18 21° SSE
Meteor 1-18 Rocket 4.2 01:22:27 10° S 01:27:53 60° E 01:33:23 10° NNE
Orbus 7S 3.4 01:25:47 10° WSW 01:28:28 49° SSE 01:32:03 17° E
Hubble Space Telescope 0.7 01:24:41 10° W 01:28:50 89° S 01:31:24 22° E
Cosmos 1908 Rocket 3.9 01:26:20 10° N 01:30:38 47° E 01:32:58 24° SE
STARLINK-1236 3.5 01:26:54 10° SSW 01:30:59 68° SE 01:35:06 10° NE
Cosmos 1513 Rocket 4.5 01:25:01 10° N 01:31:08 87° W 01:37:18 10° S
STARLINK-1177 4.3 01:28:41 10° NW 01:32:40 48° SW 01:35:05 21° SSE
Cosmos 2251 Rocket 3.8 01:28:37 10° NNW 01:33:48 67° WSW 01:38:29 13° S
STARLINK-1167 4.5 01:33:41 10° NW 01:37:37 43° SW 01:39:51 22° S
SEDSat Delta rocket 4.2 01:32:19 10° WNW 01:39:08 73° N 01:44:10 18° E
Resurs 1-3 3.8 01:37:25 28° SE 01:39:29 54° ENE 01:43:46 10° N
ASTEX 1 3.4 01:35:36 12° S 01:40:11 83° W 01:45:06 10° N
STARLINK-1269 3.5 01:36:47 10° SW 01:40:54 88° ESE 01:45:03 10° NE
STARLINK-1157 3.3 01:40:14 10° NNW 01:43:27 54° NE 01:44:03 45° E
Cosmos 2056 Rocket 3.5 01:38:27 10° SSW 01:43:34 84° WNW 01:48:41 10° NNE
Meteor 2-4 Rocket 4.1 01:41:25 27° SE 01:43:36 38° E 01:48:32 10° NNE
Cosmos 1464 Rocket 4.4 01:38:32 10° NNW 01:44:51 68° W 01:51:10 10° S
GOES 2 Rocket 4.1 01:36:53 10° W 01:45:04 79° S 01:48:40 27° ESE
STARLINK-1200 3.6 01:41:46 10° SW 01:45:54 82° NW 01:50:02 10° NE
COSMOS 2406 4.5 01:44:04 10° N 01:48:43 25° ENE 01:50:17 22° E
STARLINK-1192 3.8 01:46:46 10° SW 01:50:53 72° NW 01:55:00 10° NE
Cosmos 1743 2.5 01:47:15 10° N 01:51:02 79° E 01:52:08 44° SSE
Okean 3 4.1 01:51:40 35° E 01:51:42 35° E 01:55:37 10° NNE
Centaur AC-125 3.5 01:48:56 10° W 01:52:33 75° S 02:05:39 13° E
GPS 2-04 Rocket1 2.7 01:50:28 10° WSW 01:53:59 66° NNW 01:55:48 27° NE
Centaur D-1A AC-32 3.6 01:32:00 10° W 01:54:06 60° SSW 01:56:36 33° SE
STARLINK-1141 4.3 01:51:00 10° NNW 01:54:54 40° NE 01:55:46 35° ENE
STARLINK-1244 4.0 01:51:46 10° SW 01:55:51 64° NW 01:59:57 10° NE
STARLINK-1140 4.1 01:55:56 10° NNW 01:59:54 45° NE 02:00:34 41° ENE
STARLINK-1138 4.2 01:56:46 10° SW 02:00:48 56° NW 02:04:53 10° NNE
H-2A R/B 2.1 01:59:36 10° W 02:02:22 51° SSW 02:03:58 38° SE
Cosmos 1634 Rocket 4.3 01:57:24 10° N 02:03:28 47° E 02:05:16 37° SE
STARLINK-1156 3.9 02:00:51 10° NNW 02:04:53 51° NE 02:05:21 48° ENE
STARLINK-1143 4.5 02:01:46 10° WSW 02:05:47 50° NW 02:09:49 10° NNE
STARLINK-1148 3.8 02:05:47 10° NNW 02:09:51 57° NE 02:10:07 56° ENE
Okean 1-7 4.3 02:06:02 10° SSW 02:10:02 38° W 02:14:01 10° NNW
Cosmos 1452 Rocket 3.5 02:13:27 52° SE 02:14:18 60° ESE 02:19:30 10° NNE
STARLINK-1158 3.6 02:10:45 10° NW 02:14:51 65° NE 02:14:55 65° NE
OAO 3 Copernicus 4.3 02:10:27 10° WNW 02:15:27 63° SSW 02:16:06 57° SSE
Cosmos 1420 Rocket 4.0 02:15:15 21° SSW 02:18:48 79° WNW 02:24:01 10° NNE
STARLINK-1162 3.6 02:15:43 10° NW 02:19:42 73° NNE 02:19:42 73° NNE
Cosmos 2082 Rocket 4.0 02:17:47 10° NNE 02:21:20 17° ENE 02:21:36 17° ENE
Cosmos 407 Rocket 3.4 02:18:32 10° NNW 02:23:53 88° WSW 02:24:55 60° S
Cosmos 1833 Rocket 3.7 02:20:30 10° N 02:25:25 31° ENE 02:25:34 31° ENE
Cosmos 332 Rocket 4.2 02:28:28 49° ENE 02:28:28 49° ENE 02:32:22 10° NNE
Meteor 1-4 Rocket 4.2 02:27:29 26° WSW 02:28:18 28° W 02:31:20 10° NNW
Cosmos 1975 3.1 02:24:58 10° NNW 02:28:48 66° WNW 02:28:48 66° WNW
Aureole 1 Rocket 3.5 02:24:49 10° NNW 02:29:41 83° ENE 02:30:36 64° SSE
STARLINK-1159 3.8 02:25:37 10° NW 02:29:15 67° NW 02:29:15 67° NW
Cosmos 2221 Rocket 3.6 02:29:37 74° SW 02:29:53 78° W 02:34:25 10° N
STARLINK-1171 4.1 02:30:38 10° NW 02:34:04 58° WNW 02:34:04 58° WNW
Meteor 2-9 Rocket 4.2 02:32:00 10° NNW 02:37:19 71° W 02:38:11 59° SSW
Resurs 01 Rocket 2.6 02:38:50 38° WSW 02:39:26 40° W 02:43:38 10° NNW
STARLINK-1155 4.4 02:35:36 10° NW 02:38:49 50° WNW 02:38:49 50° WNW
SPOT 1/Viking Rocket 3.9 02:42:36 53° NE 02:42:36 53° NE 02:47:08 10° N
ATLAS 3B CENTAUR R/B 2.9 02:29:09 10° WSW 02:42:35 65° SSE 02:43:51 57° SE
Cosmos 2278 Rocket 3.8 02:40:50 10° SW 02:45:53 33° WNW 02:50:58 10° N
Milstar 3 Cent rocket 4.2 02:37:45 10° SW 02:46:32 47° SE 03:05:01 10° ENE
Cosmos 1190 Rocket 4.2 02:42:56 10° NNW 02:48:04 61° WSW 02:48:19 60° WSW
Cosmos 1140 Rocket 3.7 02:46:20 10° NNW 02:51:29 63° WSW 02:51:30 63° WSW
Sich 1 Rocket 4.3 02:47:07 10° NNW 02:51:20 51° W 02:51:20 51° W
ERS-1 Rocket 3.7 03:00:13 45° NNE 03:00:13 45° NNE 03:03:54 10° N
Terra 3.5 03:01:35 24° NNE 03:01:35 24° NNE 03:04:00 10° N
Cosmos 2142 Rocket 4.5 02:56:54 10° N 03:03:01 72° W 03:03:29 69° SW
Cosmos 909 Rocket 4.3 02:57:03 10° NNW 03:03:59 61° WSW 03:04:36 58° SW
Okean 2 Rocket 4.2 03:00:38 10° NNW 03:03:40 41° NNW 03:03:40 41° NNW
Hubble Space Telescope 3.3 03:05:56 10° W 03:06:44 15° W 03:06:44 15° W
Spot 2 Rocket 4.3 03:11:18 46° W 03:11:18 46° W 03:15:37 10° NNW
Nadezhda 4 Rocket 4.0 03:14:13 69° NNE 03:14:13 69° NNE 03:19:34 10° N
Lacrosse 5 3.7 03:14:40 10° N 03:17:49 23° NNE 03:17:49 23° NNE
SEDSat Delta rocket 4.5 03:19:14 10° WNW 03:24:16 50° W 03:24:16 50° W
COSMOS 2406 4.5 03:27:51 10° NW 03:32:21 33° W 03:32:21 33° W
H-2A ROCKET BODY 3.9 03:31:11 10° WSW 03:37:46 71° SSE 04:19:14 10° E
SPOT 5 4.4 03:46:55 34° NW 03:46:55 34° NW 03:50:05 10° NNW
Cosmos 2082 Rocket 3.6 04:00:09 10° NNW 04:03:27 33° NW 04:03:27 33° NW
Cosmos 2369 Rocket 3.9 04:13:14 27° NNE 04:13:14 27° NNE 04:15:40 10° NNE
Cosmos 1943 Rocket 3.8 04:14:47 30° N 04:14:47 30° N 04:17:40 10° N
CENTAUR R/B 4.2 04:52:43 10° N 05:00:21 37° NE 05:01:09 36° ENE
ATLAS 2AS CENTAUR R/B 3.7 05:17:31 49° NW 05:17:31 49° NW 05:24:26 10° NNE
CZ-4C R/B 4.3 06:25:54 17° ENE 06:25:54 17° ENE 06:27:17 10° NE
Cosmos 1980 Rocket 4.2 06:48:47 19° E 06:48:47 19° E 06:51:40 10° NE
ATLAS 3B R/B 3.2 06:42:19 10° NNW 06:47:29 54° NNW 06:47:29 54° NNW
CENTAUR R/B 4.1 06:43:09 10° NW 06:48:18 36° WNW 06:48:18 36° WNW
Cosmos 2219 4.3 06:54:14 10° N 06:59:00 39° NE 06:59:00 39° NE
BREEZE-M DEB (TANK) 4.2 07:12:55 38° ENE 07:12:55 38° ENE 07:18:16 10° NE
Cosmos 2297 Rocket 3.2 07:06:11 10° N 07:11:29 40° ENE 07:11:45 40° ENE
SL-16 R/B 2.7 07:13:42 67° NNE 07:13:42 67° NNE 07:19:10 10° N
BREEZE M DEB (TANK) 4.3 07:11:50 68° WSW 07:13:04 80° NW 07:42:50 10° NE
ARIANE 5 R/B 4.3 07:14:02 10° NE 07:17:45 23° E 07:17:45 23° E
SJ 16-02 3.3 07:15:21 10° N 07:17:47 27° NNE 07:17:47 27° NNE
ADEOS II 2.9 07:19:52 10° NNE 07:24:11 46° ENE 07:24:11 46° ENE
CZ-2D R/B 3.3 07:29:19 10° N 07:32:35 32° NNW 07:32:35 32° NNW
Resurs 1-4 Rocket 3.4 07:31:26 10° N 07:34:47 32° NW 07:34:47 32° NW
Cosmos 1697 Rocket 3.2 07:38:46 52° NNW 07:38:46 52° NNW 07:43:25 10° N
Cosmos 1814 Rocket 4.4 07:38:34 63° NE 07:38:34 63° NE 07:43:09 10° NNE
Cosmos 2181 Rocket 4.2 07:31:37 10° N 07:38:02 70° E 07:38:57 62° SE
Cosmos 540 Rocket 3.8 07:46:55 61° N 07:46:55 61° N 07:51:11 10° NNE
IDEFIX/ARIANE 42P 4.5 07:42:18 10° NE 07:46:20 22° E 07:48:20 18° SE
Cosmos 2227 Rocket 2.2 07:41:51 10° NNW 07:47:32 76° ENE 07:47:50 73° ESE
SL-16 R/B 4.3 07:45:53 15° SE 07:48:09 19° E 07:51:57 10° ENE
FALCON 9 R/B 4.4 07:52:05 13° WNW 07:59:26 75° NNE 08:34:30 10° ESE
Cosmos 990 Rocket 4.1 07:58:47 10° NNW 08:03:22 65° NW 08:03:22 65° NW
Cosmos 841 Rocket 4.1 08:07:29 43° NW 08:07:29 43° NW 08:11:59 10° N
Cosmos 2285 Rocket 4.1 08:04:17 10° NNW 08:10:38 74° ENE 08:15:14 20° SSE
CZ-4C R/B 3.6 08:11:04 21° NW 08:11:13 21° NW 08:15:17 10° N
Skynet4D Del rocket 3.5 08:14:26 65° SSW 08:14:47 67° S 08:20:13 10° E
STARLINK-1301 4.5 08:16:27 38° ENE 08:16:27 38° ENE 08:18:44 10° NE
Cosmos 2221 4.4 08:12:25 10° NNE 08:16:11 28° E 08:19:43 11° SE
STARLINK-1307 4.3 08:19:20 41° ENE 08:19:20 41° ENE 08:21:48 10° NE
STARLINK-1290 4.3 08:21:03 42° ENE 08:21:03 42° ENE 08:23:28 10° NE
Cosmos 2058 4.1 08:20:14 31° SE 08:21:31 39° E 08:25:25 10° NNE
STARLINK-1297 4.1 08:23:33 46° ENE 08:23:33 46° ENE 08:26:04 10° NE
STARLINK-1268 4.5 08:24:01 34° NE 08:24:01 34° NE 08:25:56 10° NE
STARLINK-1296 4.4 08:24:19 35° NE 08:24:19 35° NE 08:26:17 10° NE
STARLINK-1260 4.4 08:25:11 37° NE 08:25:11 37° NE 08:27:12 10° NE
STARLINK-1318 4.3 08:26:04 38° NE 08:26:04 38° NE 08:28:06 10° NE
STARLINK-1275 4.3 08:26:53 38° NE 08:26:53 38° NE 08:28:58 10° NE
STARLINK-62 4.3 08:27:05 37° ENE 08:27:05 37° ENE 08:29:19 10° NE
STARLINK-26 4.4 08:27:13 35° NNW 08:27:13 35° NNW 08:29:44 10° NNE
Meteor 1-27 4.3 08:21:05 10° N 08:26:38 73° E 08:30:26 21° SSE
STARLINK-1309 4.2 08:27:47 39° NE 08:27:47 39° NE 08:29:53 10° NE
STARLINK-1282 4.1 08:28:38 40° NE 08:28:38 40° NE 08:30:45 10° NE
STARLINK-34 4.1 08:28:54 40° ENE 08:28:54 40° ENE 08:31:13 10° NE
Meteor 1-28 Rocket 3.7 08:27:19 44° SE 08:28:13 58° ENE 08:31:56 10° N
STARLINK-1313 4.1 08:29:41 39° NNE 08:29:41 39° NNE 08:31:49 10° NE
USA 234 3.3 08:22:23 10° NE 08:28:55 74° SE 08:31:41 38° SSW
STARLINK-1029 4.5 08:29:52 30° E 08:29:52 30° E 08:32:07 10° ENE
STARLINK-1279 4.1 08:30:36 40° NNE 08:30:36 40° NNE 08:32:46 10° NE
STARLINK-1298 4.0 08:31:14 43° NNE 08:31:14 43° NNE 08:33:29 10° NE
Lacrosse 4 Rocket 2.4 08:26:46 10° N 08:30:52 46° ENE 08:34:51 10° SE
Cosmos 1980 Rocket 2.8 08:30:34 36° W 08:31:16 38° WNW 08:36:29 10° N
STARLINK-1293 3.9 08:32:08 44° NNE 08:32:08 44° NNE 08:34:24 10° NE
Nadezhda 3 Rocket 4.5 08:25:51 10° N 08:32:04 60° E 08:38:17 10° SSE
STARLINK-1255 3.8 08:33:49 46° NNE 08:33:49 46° NNE 08:36:08 10° NE
MSX 4.4 08:32:06 10° NNE 08:37:42 53° E 08:42:03 17° S
Cosmos 1892 3.1 08:37:02 41° SSE 08:38:06 58° E 08:41:51 10° NNE
STARLINK-1317 3.5 08:39:26 55° NNW 08:39:26 55° NNW 08:42:42 10° NNE
NOSS 2-1 (C) 3.0 08:39:06 67° SSE 08:39:18 70° ESE 08:42:40 10° NNE
STARLINK-1211 4.4 08:35:38 10° NNW 08:39:41 52° NE 08:43:42 10° ESE
H-2A R/B 2.5 08:36:55 15° SSE 08:40:21 60° ENE 08:44:40 10° N
NOSS 2-1 (D) 2.8 08:43:28 72° S 08:43:47 83° ESE 08:47:09 10° NNE
STARLINK-64 4.2 08:43:34 35° SSE 08:44:03 37° SE 08:47:23 10° ENE
STARLINK-41 4.2 08:44:31 30° NNW 08:44:31 30° NNW 08:47:02 10° NNE
STARLINK-1245 4.2 08:40:34 10° NNW 08:44:39 58° NE 08:48:44 10° SE
STARLINK-1291 3.5 08:46:26 48° NW 08:46:26 48° NW 08:49:34 10° NNE
STARLINK-1264 3.6 08:48:47 45° NW 08:48:49 45° NW 08:52:01 10° NNE
STARLINK-1233 3.9 08:45:31 10° NW 08:49:38 66° NE 08:53:44 10° SE
STARLINK-1267 3.6 08:50:30 43° NW 08:50:36 43° NW 08:53:46 10° NNE
deb Chang Zheng 4 4.4 08:46:47 10° NNE 08:50:55 47° E 08:54:02 16° S
Cosmos 2150 Rocket 4.5 08:46:37 10° N 08:51:43 60° ENE 08:56:46 10° SSE
STARLINK-1272 3.7 08:52:10 40° NW 08:52:21 41° NW 08:55:31 10° NNE
STARLINK-1207 3.8 08:53:52 38° WNW 08:54:07 39° NW 08:57:16 10° NNE
STARLINK-1204 3.7 08:50:29 10° NW 08:54:38 75° NE 08:58:44 10° SE
Cosmos 2297 Rocket 3.8 08:51:12 10° NW 08:53:28 17° WNW 08:53:28 17° WNW
STARLINK-1266 3.8 08:55:37 36° WNW 08:55:57 37° NW 08:59:04 10° NNE
ARIANE 5 R/B 3.5 08:52:44 10° NNW 08:56:58 28° WNW 08:58:05 26° W
SL-16 R/B 4.5 08:58:48 10° WNW 08:58:48 10° WNW 08:58:58 10° WNW
STARLINK-1284 3.9 08:57:24 33° WNW 08:57:47 35° NW 09:00:53 10° NNE
STARLINK-1258 4.0 08:59:06 32° WNW 08:59:34 33° NW 09:02:38 10° NNE
STARLINK-1238 3.6 08:55:28 10° NW 08:59:36 85° NE 09:03:44 10° SE
STARLINK-1292 4.0 09:00:04 30° WNW 09:00:31 32° NW 09:03:30 10° NNE
Cosmos 2082 4.1 08:55:55 10° NW 09:01:07 39° WSW 09:04:18 21° SSW
Meteor 2-2 Rocket 4.4 08:55:19 10° N 09:01:23 88° E 09:07:21 10° S
Cosmos 2322 Rocket 2.2 08:59:25 21° SSW 09:03:17 83° ESE 09:08:55 10° NNE
STARLINK-1274 4.2 09:02:40 28° WNW 09:03:19 30° NW 09:06:18 10° NNE
STARLINK-1289 4.2 09:03:30 27° WNW 09:04:08 29° NW 09:07:03 10° NNE
ADEOS II 3.9 09:01:22 10° NW 09:04:10 15° WNW 09:05:08 14° W
STARLINK-1201 3.5 09:00:27 10° NW 09:04:35 84° SW 09:08:43 10° SE
CZ-2C R/B 3.5 09:00:13 10° NNE 09:05:11 45° E 09:10:07 10° S
STARLINK-1303 4.3 09:05:29 25° WNW 09:06:11 28° NW 09:09:04 10° NNE
Cosmos 2263 Rocket 3.5 09:02:14 10° N 09:07:29 41° ENE 09:12:41 10° SE
Cosmos 1869 3.1 09:03:41 10° NNW 09:07:32 67° W 09:10:10 19° S
STARLINK-1304 4.4 09:05:38 23° S 09:07:52 44° SE 09:11:48 10° NE
STARLINK-1286 4.3 09:06:32 23° SSW 09:08:47 49° SE 09:12:48 10° NE
STARLINK-1312 4.5 09:08:02 23° WNW 09:08:55 27° NW 09:11:50 10° NNE
Cosmos 1408 2.5 09:07:03 22° S 09:09:18 90° WSW 09:13:01 10° N
In-Cosmos 22 Rocket 4.4 09:05:54 23° SSW 09:09:24 54° W 09:14:57 10° N
STARLINK-1206 3.5 09:05:25 10° NW 09:09:32 75° SW 09:13:39 10° SE
Cosmos 1400 Rocket 4.3 09:07:15 10° NW 09:10:09 21° W 09:10:09 21° W
Fermi 4.3 09:09:31 30° SW 09:10:55 41° S 09:14:46 10° E
Cosmos 2298 Rocket 3.9 09:09:05 10° NNW 09:14:21 70° WSW 09:19:36 10° S
STARLINK-1205 3.5 09:10:25 10° NW 09:14:30 65° SW 09:18:36 10° SSE
Cosmos 1842 Rocket 4.1 09:10:36 10° NNW 09:14:43 37° W 09:17:02 22° SW
STARLINK-1299 3.7 09:15:16 24° SSW 09:17:42 77° SE 09:21:51 10° NE
Cosmos 2218 Rocket 4.2 09:11:31 10° S 09:17:46 77° E 09:24:08 10° N
Landsat 5 3.7 09:15:02 10° S 09:19:24 59° W 09:23:52 10° NNW
STARLINK-1218 3.6 09:15:24 10° NW 09:19:28 57° SW 09:23:31 10° SSE
GPS 2-14 Rocket1 3.9 09:19:05 20° SSW 09:19:40 21° S 09:22:35 10° SE
Timation 1 Rocket 4.4 09:14:01 10° NNW 09:20:00 87° ENE 09:25:57 10° SSE
STARLINK-1306 3.7 09:19:02 21° SSW 09:21:45 72° SE 09:25:55 10° NE
Cosmos 1076 Rocket 4.4 09:21:19 22° SW 09:23:19 32° W 09:27:14 10° NNW
STARLINK-1254 3.7 09:20:25 10° NW 09:24:25 50° SW 09:28:25 10° SSE
CZ-2C R/B 4.1 09:21:33 10° NNW 09:24:31 23° WNW 09:25:49 19° WSW
STARLINK-58 4.5 09:23:21 18° W 09:24:43 24° NW 09:27:24 10° NNE
IDEFIX/ARIANE 42P 3.5 09:21:14 10° N 09:25:52 32° WNW 09:29:09 17° SW
STARLINK-1281 3.7 09:24:46 18° SSW 09:27:43 75° SE 09:31:50 10° NE
Cosmos 1959 Rocket 4.5 09:21:40 10° S 09:27:53 89° W 09:34:04 10° N
STARLINK-1231 3.9 09:25:27 10° NW 09:29:23 44° SW 09:33:18 10° SSE
ERS-2 3.7 09:29:52 17° W 09:30:02 17° W 09:32:29 10° NW
SL-16 R/B 2.7 09:27:46 17° SW 09:31:49 42° WNW 09:37:11 10° N
STARLINK-1310 3.6 09:29:34 17° SW 09:32:41 86° SE 09:36:50 10° NE
NOSS 2-1 (E) 4.4 09:31:37 16° W 09:33:22 24° WNW 09:36:11 10° N
Cosmos 1315 Rocket 3.5 09:29:55 10° NNW 09:33:26 33° W 09:36:58 10° SSW
CZ-4C R/B 4.1 09:31:40 17° SW 09:33:30 25° W 09:36:32 10° NW
SL-8 Rocket 4.1 09:27:31 10° SSW 09:33:46 63° W 09:40:01 10° N
Cosmos 1125 Rocket 3.4 09:28:58 10° NNW 09:34:10 86° WSW 09:39:22 10° SSE
STARLINK-1232 4.0 09:30:30 10° WNW 09:34:21 38° SW 09:38:11 10° SSE
Shenzhou-11 Module 2.8 09:35:27 17° W 09:36:53 30° NNW 09:39:08 10° NE
STARLINK-1319 3.6 09:34:20 15° SW 09:37:39 84° NW 09:41:48 10° NE
ALOS 4.3 09:34:04 10° NE 09:38:01 27° E 09:41:57 10° SSE
Meteor 2-12 Rocket 4.4 09:32:36 10° S 09:38:39 82° W 09:44:43 10° N
STARLINK-1208 4.2 09:35:33 10° WNW 09:39:18 34° SW 09:43:03 10° SSE
Cosmos 1825 2.3 09:36:01 10° SSW 09:39:40 51° W 09:43:20 10° N
Okean 3 Rocket 3.6 09:36:19 10° S 09:40:48 73° W 09:45:19 10° N
ADEOS 3.6 09:35:47 10° N 09:41:00 82° WNW 09:46:13 10° SSW
STARLINK-1277 3.6 09:39:06 14° SW 09:42:36 74° NW 09:46:44 10° NE
STARLINK-1271 4.4 09:40:37 10° WNW 09:44:14 30° SW 09:47:52 10° S
Cosmos 1484 Rocket 4.3 09:41:52 10° NNE 09:45:33 38° E 09:49:16 10° SSE
STARLINK-1276 3.7 09:43:54 12° SW 09:47:37 65° NW 09:51:43 10° NE
Cosmos 2333 Rocket 3.9 09:43:13 10° SSE 09:48:07 32° ESE 09:53:03 10° NE
ATLAS CENTAUR R/B 4.5 09:44:31 10° WNW 09:50:07 35° SW 10:03:04 10° S
STARLINK-1278 4.2 09:47:07 12° WSW 09:50:57 48° NW 09:55:04 10° NNE
STARLINK-1305 3.9 09:48:41 11° SW 09:52:35 58° NW 09:56:40 10° NNE
STARLINK-1280 4.2 09:48:53 11° WSW 09:52:48 46° NW 09:56:54 10° NNE
Cosmos 2221 4.2 09:50:52 10° NW 09:53:25 15° W 09:55:57 10° SW
Cosmos 2151 3.7 09:50:56 10° SSW 09:54:47 34° W 09:58:42 10° NNW
CZ-4B R/B 4.2 09:51:31 10° NNE 09:55:00 37° E 09:58:21 10° SSE
OFEQ 5 4.5 09:53:01 10° ENE 09:55:42 74° NNW 09:58:20 10° WSW
STARLINK-1262 4.0 09:53:33 10° WSW 09:57:34 51° NW 10:01:36 10° NNE
H-2A R/B 4.3 09:56:06 10° NNE 10:00:03 35° E 10:04:05 10° SSE
Cosmos 1408 Rocket 3.5 09:58:03 10° S 10:02:24 87° W 10:06:44 10° N
STARLINK-1300 4.2 09:58:34 10° WSW 10:02:32 45° NW 10:06:31 10° NNE
Cosmos 2322 4.1 09:57:00 10° S 10:02:38 70° ESE 10:08:19 10° NNE
Skynet4D Del rocket 3.6 10:01:38 10° W 10:07:12 72° S 10:12:31 10° ESE
Cosmos 2360 Rocket 2.5 10:02:11 10° SW 10:07:38 51° WNW 10:13:05 10° N
FENGYUN 3A 4.2 10:02:15 10° NNE 10:07:38 63° E 10:12:59 10° S
